{"data":{"norad_id":63145,"intl_designator":"2025-043P","name":"STARLINK-32949","alt_names":[],"object_type":"PAYLOAD","status":"ACTIVE","operator":null,"country":"US","launch_date":"2025-03-03","launch_site_code":"AFETR","launch_vehicle":null,"mission":null,"orbit_class":"UNKNOWN","rcs_meters":null,"size_class":null,"mass_kg":null,"dimensions":null,"purposes":["comms"],"wikipedia_slug":null,"has_3d_model":false,"image_url":null,"decayed_at":null,"tle_current":{"epoch":"2026-05-25T03:44:31.975296Z","epoch_age_seconds":71743,"freshness":"FRESH","line1":"1 63145U 25043P   26145.15592564  .00013328  00000+0  49288-3 0  9998","line2":"2 63145  43.0012 304.6655 0000941 280.8203  79.2543 15.27586064 69624","mean_motion":15.27586064,"eccentricity":9.41e-5,"inclination_deg":43.0012,"raan_deg":304.6655,"arg_perigee_deg":280.8203,"mean_anomaly_deg":79.2543,"bstar":0.00049288,"rev_number":6962,"period_min":94.266374506543,"perigee_km":482.38530239921,"apogee_km":483.6765742052,"semimajor_km":6861.1679383022,"source":"CELESTRAK","updated_at":"2026-05-25T13:38:19.916557Z"}}}